Temp
63 62 61 62 61 61 62 62 61 60 59 57 56 56 56 57 59 60 60 60 60 60 60 60 61 60 57 49 48 58 66 67 63 60 54 51 47 45 39 41 43 40 42 44 46 45 45
63 62 61 61 61 61 61 61 61 60 60 59 58 57 57 59 59 59 59 59 60 60 60 60 60 60 53 43 55 58 57 59 59 56 53 52 49 48 42 41 40 42 42 42 43 44 45
62 61 61 61 61 61 60 61 61 60 60 60 59 59 59 58 58 58 59 59 59 59 60 60 59 58 50 46 56 56 56 53 58 56 51 54 53 48 46 40 45 42 37 39 41 42 42
62 61 61 61 61 61 60 60 60 60 59 59 58 58 58 58 58 58 58 58 58 58 59 59 59 55 44 55 57 55 57 55 58 57 54 54 54 49 45 45 41 37 36 32 41 42 44
61 61 60 60 60 61 61 60 60 59 59 58 58 58 58 57 57 57 57 57 61 60 60 59 53 51 41 55 52 55 58 53 54 55 55 57 51 44 44 34 31 32 27 30 35 42 41
61 61 60 60 60 61 60 60 60 59 58 58 57 57 57 57 57 56 56 58 60 58 57 56 54 46 46 45 52 54 58 57 51 50 47 46 40 35 34 31 26 28 25 29 30 39 39
60 60 60 60 60 60 60 59 58 59 58 57 57 57 57 57 56 55 50 49 45 46 51 45 45 46 47 50 56 53 57 53 51 45 35 40 33 28 31 34 33 31 29 28 33 40 36
60 60 60 60 60 60 59 59 58 58 57 57 57 56 57 57 56 55 47 41 42 44 41 49 50 48 51 54 45 51 57 45 43 34 38 34 30 36 37 36 34 32 29 29 35 39 38
59 60 60 60 59 59 59 59 58 58 57 57 56 56 56 56 55 46 44 44 48 45 41 43 47 46 47 52 45 46 52 47 40 35 34 31 36 40 37 34 32 31 29 29 30 36 40
59 59 59 59 59 59 59 59 58 58 56 56 56 56 55 55 46 42 43 48 48 48 28 34 40 43 49 49 42 53 53 47 41 35 35 33 39 37 35 33 34 30 37 36 34 33 29
59 59 59 59 59 59 58 59 58 57 56 55 56 56 54 53 41 40 46 46 47 42 13 36 40 51 48 44 44 45 54 48 38 39 38 34 36 35 35 38 39 35 41 38 37 33 32
59 58 58 58 58 58 58 58 58 58 56 55 55 55 54 46 42 44 46 46 43 26 18 33 40 38 40 42 43 46 45 49 46 39 39 36 42 41 39 42 41 42 37 37 36 33 26
58 58 58 58 58 58 57 58 57 57 57 56 55 54 50 48 40 46 45 40 25 19 35 32 34 38 39 38 38 40 38 37 33 30 27 34 36 42 43 37 40 39 34 27 23 26 26
58 58 57 57 58 57 57 57 57 57 57 56 55 51 48 48 45 44 40 32 21 32 33 39 39 38 36 38 37 38 36 32 36 34 32 28 24 38 42 39 37 37 35 29 22 23 28
59 58 57 57 57 57 57 57 57 57 56 55 51 40 41 44 45 42 37 28 28 31 37 35 36 33 34 38 39 38 36 36 40 39 32 31 29 40 42 44 42 38 34 39 32 33 29
59 57 57 57 57 56 57 57 56 56 56 53 39 37 39 45 43 39 33 33 33 38 39 38 31 34 30 35 35 35 36 40 40 42 43 38 31 39 42 43 43 39 43 32 33 24 24
58 58 57 57 56 56 56 56 56 57 55 50 37 36 43 43 41 37 30 32 35 40 39 37 33 34 35 35 37 36 34 40 43 42 43 40 37 35 40 37 35 37 35 35 34 32 27
58 57 57 56 56 55 56 56 57 56 54 45 36 31 44 42 34 29 29 33 42 37 39 37 37 37 34 35 32 33 35 40 45 42 36 40 36 30 36 44 46 43 37 35 29 28 30
58 57 57 56 55 55 55 55 56 56 53 38 33 30 43 42 29 26 33 36 37 37 37 37 37 39 38 34 32 36 39 46 45 41 39 41 33 27 33 38 42 37 36 36 35 33 28
58 57 56 56 55 55 55 55 55 55 54 39 34 29 35 35 33 32 32 31 33 39 38 39 38 39 37 35 36 34 36 43 44 44 49 46 35 32 28 34 37 33 37 38 35 28 32
58 57 56 56 56 56 55 55 55 54 53 41 32 28 32 26 31 30 31 33 33 34 38 39 37 36 33 31 32 32 36 38 43 44 41 40 32 30 34 36 36 36 36 36 33 34 31
57 57 56 56 55 55 55 54 54 54 51 37 33 32 31 30 31 29 32 30 33 33 35 36 34 36 36 32 32 31 33 33 32 38 36 37 31 32 30 35 34 33 36 36 36 35 35
57 57 56 55 55 55 54 54 54 53 49 36 37 36 35 31 29 27 29 32 35 36 39 39 36 34 34 37 39 39 39 37 35 33 33 33 30 27 25 31 31 29 34 35 36 36 36
57 57 56 55 55 54 54 54 54 53 48 39 36 35 32 30 30 32 32 34 35 36 35 38 39 34 39 41 37 35 34 35 35 35 36 32 30 27 22 27 19 34 36 37 36 38 38
57 57 55 55 54 54 54 54 54 54 51 41 37 36 31 29 31 32 31 31 35 35 34 37 40 42 39 37 35 33 31 32 33 34 34 34 30 26 22 19 31 31 35 35 34 36 38
57 57 55 54 54 54 54 54 54 54 52 41 38 37 35 30 32 34 32 31 31 29 32 36 40 41 38 35 33 28 26 26 28 31 34 34 32 29 25 22 25 32 35 39 38 31 39
56 56 55 54 54 53 53 53 54 54 52 42 38 38 36 31 32 32 32 32 34 31 30 31 35 36 37 31 31 28 25 28 25 24 26 28 28 26 25 22 29 34 37 38 29 33 37
56 56 55 54 54 53 53 53 53 54 52 44 39 39 38 32 33 35 38 34 33 32 31 35 34 34 33 30 30 27 25 27 24 26 26 29 25 24 24 21 21 37 36 34 39 37 39
55 55 55 54 53 53 53 53 53 54 53 47 39 40 40 36 37 38 39 40 41 39 36 32 33 32 34 28 29 28 28 24 24 24 27 26 31 29 30 30 38 38 39 39 39 40 40
MSLP
1021.11 1020.71 1020.18 1019.29 1018.72 1018.08 1017.21 1016.46 1015.72 1014.84 1014.38 1012.88 1012.53 1012.99 1013.14 1013.34 1013.42 1013.35 1013.27 1013.27 1013.40 1013.42 1013.71 1013.68 1013.94 1013.87 1013.96 1014.95 1015.83 1015.89 1014.20 1014.49 1015.25 1015.89 1016.54 1017.10 1018.01 1018.78 1019.57 1020.04 1020.26 1020.35 1020.54 1020.44 1020.31 1020.07 1019.85
1021.38 1020.84 1020.28 1019.56 1018.76 1018.07 1017.32 1016.63 1015.91 1015.14 1014.78 1014.30 1013.75 1013.71 1013.87 1013.75 1013.81 1013.70 1013.45 1013.32 1013.38 1013.28 1013.44 1013.75 1013.79 1013.87 1014.28 1015.41 1016.01 1015.75 1015.60 1015.78 1015.73 1016.04 1016.99 1017.24 1017.94 1018.65 1019.60 1020.21 1020.48 1020.71 1020.72 1020.54 1019.93 1019.46 1019.41
1021.62 1021.16 1020.60 1019.68 1018.91 1018.17 1017.49 1016.83 1016.15 1015.56 1014.98 1014.86 1014.33 1014.11 1013.96 1014.10 1013.93 1013.70 1013.46 1013.30 1013.15 1013.09 1013.20 1013.28 1013.07 1013.75 1014.86 1016.08 1016.10 1016.43 1016.52 1016.65 1016.33 1016.55 1017.20 1017.52 1017.80 1018.54 1019.56 1020.27 1020.52 1020.78 1020.81 1020.14 1019.75 1019.44 1019.07
1021.77 1021.23 1020.60 1019.95 1019.14 1018.38 1017.57 1016.98 1016.38 1015.89 1015.32 1014.83 1014.93 1014.51 1014.31 1014.17 1014.08 1013.65 1013.49 1013.02 1012.47 1012.54 1013.04 1013.44 1013.56 1013.94 1015.66 1016.21 1016.40 1016.72 1017.09 1017.03 1016.89 1017.08 1017.44 1017.77 1017.94 1018.87 1019.72 1020.38 1020.78 1021.22 1021.33 1020.80 1019.92 1019.68 1019.17
1021.89 1021.40 1020.73 1020.12 1019.48 1018.52 1017.72 1017.14 1016.41 1015.96 1015.55 1015.12 1014.81 1014.71 1014.48 1014.26 1013.94 1013.72 1013.36 1013.05 1011.94 1012.42 1013.09 1013.59 1013.73 1014.27 1016.26 1016.28 1016.67 1017.13 1017.05 1017.34 1017.43 1017.70 1017.86 1018.04 1018.52 1019.73 1020.34 1021.03 1021.68 1021.96 1022.03 1021.62 1020.45 1019.74 1019.33
1022.04 1021.45 1021.01 1020.28 1019.49 1018.59 1018.02 1017.40 1016.63 1016.21 1015.88 1015.40 1014.96 1014.82 1014.46 1014.14 1013.85 1013.86 1013.62 1013.27 1013.03 1013.26 1013.78 1014.23 1014.65 1015.63 1017.14 1016.84 1017.01 1017.44 1017.34 1017.43 1017.91 1018.22 1018.66 1019.03 1019.84 1020.53 1021.22 1021.63 1022.05 1022.37 1022.50 1022.00 1021.12 1019.81 1019.27
1022.20 1021.68 1021.05 1020.50 1019.56 1018.81 1018.36 1017.84 1017.19 1016.50 1016.32 1015.70 1015.07 1014.96 1014.74 1014.42 1014.04 1014.11 1013.85 1013.82 1014.23 1014.86 1014.90 1015.42 1015.78 1015.91 1016.75 1017.47 1017.32 1017.60 1017.51 1017.60 1018.09 1018.73 1019.55 1019.96 1020.66 1021.19 1021.43 1021.68 1021.90 1022.43 1022.66 1022.07 1020.60 1019.65 1019.20
1022.43 1021.80 1021.27 1020.65 1019.82 1019.32 1018.76 1018.23 1017.59 1017.03 1016.71 1016.19 1015.56 1015.29 1015.09 1014.91 1014.73 1014.53 1014.67 1015.87 1016.92 1017.23 1016.77 1016.74 1016.70 1017.00 1017.43 1017.41 1017.75 1017.84 1017.60 1018.12 1018.60 1019.47 1020.15 1020.85 1020.97 1020.96 1021.24 1021.51 1021.80 1022.21 1022.22 1021.34 1019.84 1018.93 1018.54
1022.71 1022.04 1021.48 1021.05 1020.35 1019.62 1019.15 1018.64 1017.98 1017.40 1017.15 1016.66 1016.28 1015.80 1015.53 1015.15 1015.06 1015.31 1016.24 1017.21 1017.34 1017.42 1017.37 1018.22 1018.03 1017.85 1018.03 1017.67 1017.94 1018.05 1018.02 1018.36 1018.97 1019.83 1020.42 1020.66 1020.74 1020.62 1020.91 1021.19 1021.56 1021.49 1021.30 1020.54 1019.95 1018.69 1017.86
1023.03 1022.29 1021.76 1021.19 1020.61 1019.91 1019.39 1018.84 1018.57 1018.14 1017.80 1017.24 1016.70 1016.36 1015.81 1015.33 1015.74 1016.68 1016.73 1017.28 1017.21 1017.06 1017.66 1019.60 1018.94 1018.86 1018.44 1018.28 1018.45 1018.35 1018.33 1018.71 1019.10 1019.74 1020.24 1020.52 1020.35 1020.31 1020.26 1020.40 1020.84 1020.71 1019.48 1019.27 1019.15 1019.19 1017.80
1023.17 1022.64 1022.09 1021.37 1020.78 1020.35 1019.78 1019.12 1018.80 1018.57 1018.32 1017.85 1017.38 1016.75 1016.51 1015.82 1017.00 1017.56 1017.72 1017.17 1016.91 1016.83 1018.67 1020.49 1019.48 1019.20 1018.58 1018.52 1018.66 1018.65 1018.51 1018.46 1019.12 1019.54 1020.03 1019.87 1019.58 1019.72 1019.91 1019.60 1019.67 1018.85 1018.42 1018.56 1018.59 1018.24 1017.58
1023.24 1022.86 1022.40 1021.71 1021.04 1020.64 1020.09 1019.60 1019.28 1018.82 1018.39 1018.25 1017.88 1017.42 1016.94 1017.09 1017.29 1017.80 1017.45 1017.06 1017.16 1018.03 1020.33 1020.44 1019.90 1019.56 1019.12 1018.82 1018.72 1018.88 1018.98 1019.03 1019.28 1019.48 1019.42 1019.41 1019.01 1018.95 1018.58 1018.21 1018.09 1017.90 1017.94 1017.60 1017.46 1017.45 1016.97
1023.41 1023.01 1022.50 1021.90 1021.42 1020.75 1020.27 1019.96 1019.59 1018.95 1018.66 1018.35 1018.34 1018.08 1017.59 1017.86 1017.91 1017.64 1017.70 1017.70 1018.16 1019.47 1021.14 1020.77 1020.33 1019.87 1019.26 1019.04 1019.15 1019.15 1019.32 1019.39 1019.55 1019.66 1019.54 1019.01 1018.44 1017.98 1017.82 1017.77 1017.55 1017.89 1017.94 1017.44 1017.17 1016.74 1015.63
1023.41 1023.15 1022.73 1022.17 1021.59 1021.12 1020.43 1020.10 1019.66 1019.07 1018.82 1018.41 1018.08 1018.33 1018.31 1018.22 1018.10 1017.96 1018.16 1018.43 1019.37 1020.54 1020.35 1020.36 1020.03 1019.91 1019.47 1019.35 1019.28 1019.33 1019.53 1019.54 1019.44 1019.62 1019.48 1019.14 1018.23 1017.59 1017.23 1017.21 1017.23 1017.28 1017.27 1016.94 1016.73 1015.94 1015.00
1023.39 1023.20 1022.84 1022.27 1021.80 1021.16 1020.58 1020.09 1019.58 1018.98 1018.56 1018.31 1018.12 1018.68 1018.60 1018.29 1018.41 1018.39 1018.52 1019.67 1020.73 1020.56 1020.21 1020.00 1020.03 1019.77 1019.63 1019.35 1019.34 1019.34 1019.23 1018.97 1018.89 1019.11 1019.28 1018.77 1017.79 1017.03 1016.84 1016.74 1017.10 1016.62 1016.55 1016.55 1016.16 1015.48 1015.18
1023.42 1023.17 1022.84 1022.49 1021.90 1021.34 1020.70 1020.08 1019.49 1018.79 1018.22 1017.87 1018.66 1019.08 1018.90 1018.30 1018.57 1018.78 1018.98 1020.15 1020.82 1020.44 1019.95 1019.74 1019.63 1019.37 1019.30 1019.26 1019.19 1019.20 1018.87 1018.64 1018.44 1018.51 1018.77 1018.63 1018.01 1016.82 1016.54 1016.64 1016.62 1016.58 1016.45 1016.32 1016.16 1015.73 1015.18
1023.50 1023.18 1022.85 1022.51 1022.02 1021.50 1020.86 1020.17 1019.53 1018.82 1018.13 1018.06 1018.80 1019.27 1018.68 1018.53 1018.95 1019.17 1020.85 1021.10 1020.66 1020.09 1019.81 1019.58 1019.20 1019.02 1018.96 1019.03 1018.94 1018.81 1018.70 1018.34 1018.10 1018.28 1018.60 1018.47 1018.26 1016.98 1016.58 1016.18 1016.11 1016.19 1016.10 1016.29 1016.32 1015.99 1015.61
1023.52 1023.20 1022.80 1022.53 1022.11 1021.55 1020.92 1020.27 1019.66 1018.87 1018.15 1018.09 1019.33 1019.87 1018.87 1018.89 1019.33 1021.41 1021.92 1021.45 1020.61 1020.08 1019.66 1019.30 1018.99 1018.55 1018.55 1018.66 1018.70 1018.50 1018.19 1017.69 1017.53 1017.91 1018.32 1018.11 1017.96 1017.21 1016.07 1015.29 1015.18 1015.45 1015.92 1016.20 1016.15 1016.07 1015.84
1023.47 1023.09 1022.78 1022.43 1022.09 1021.67 1020.96 1020.20 1019.57 1019.03 1018.73 1019.21 1020.43 1020.37 1018.81 1018.80 1020.49 1022.07 1022.15 1021.57 1020.87 1020.18 1019.79 1019.34 1019.00 1018.71 1018.53 1018.74 1018.84 1018.25 1017.75 1017.19 1017.42 1017.72 1017.61 1017.64 1017.76 1017.36 1016.08 1015.80 1015.43 1015.46 1015.87 1015.91 1015.93 1015.97 1015.71
1023.39 1023.10 1022.72 1022.39 1022.06 1021.74 1021.07 1020.20 1019.51 1019.08 1018.71 1019.37 1020.85 1021.04 1020.49 1020.66 1021.47 1021.32 1021.57 1021.75 1021.02 1020.27 1020.03 1019.64 1019.27 1018.84 1018.82 1018.97 1018.89 1018.58 1018.17 1017.54 1017.56 1017.58 1017.41 1017.42 1017.61 1017.47 1016.89 1016.23 1016.06 1015.76 1015.54 1015.47 1015.49 1015.60 1015.25
1023.30 1023.05 1022.71 1022.42 1022.11 1021.62 1021.03 1020.36 1019.83 1019.35 1018.89 1019.39 1021.24 1022.70 1022.49 1022.49 1022.52 1021.83 1021.46 1021.48 1021.44 1020.92 1020.28 1019.94 1019.66 1019.78 1019.62 1019.45 1019.27 1019.12 1018.77 1018.32 1017.74 1017.77 1017.71 1017.87 1017.87 1017.60 1016.76 1016.31 1016.15 1015.79 1015.48 1015.27 1015.29 1014.92 1014.93
1023.22 1023.04 1022.77 1022.44 1022.11 1021.67 1021.05 1020.52 1020.10 1019.56 1019.06 1020.16 1021.64 1022.36 1022.82 1022.49 1022.52 1022.54 1021.80 1021.85 1021.08 1020.79 1020.43 1020.10 1020.13 1019.90 1019.75 1019.97 1020.13 1019.86 1019.35 1018.97 1018.78 1018.27 1018.39 1018.40 1018.28 1018.19 1017.28 1016.42 1016.20 1015.67 1014.99 1014.90 1014.79 1014.65 1014.56
1023.08 1022.94 1022.79 1022.53 1022.13 1021.65 1021.45 1021.05 1020.34 1019.79 1019.63 1020.90 1022.11 1022.25 1022.40 1023.10 1022.60 1022.35 1021.97 1021.42 1020.83 1020.16 1019.96 1019.90 1020.00 1019.97 1019.63 1019.38 1019.48 1019.50 1019.39 1019.17 1019.15 1019.23 1018.94 1018.94 1018.98 1018.89 1018.03 1017.03 1016.35 1015.60 1013.95 1013.95 1013.98 1013.97 1013.91
1022.90 1022.77 1022.74 1022.52 1022.16 1021.81 1021.48 1021.42 1021.03 1020.51 1020.41 1021.28 1022.30 1022.54 1022.55 1023.23 1022.92 1022.11 1021.46 1021.05 1020.77 1020.48 1020.11 1019.60 1019.56 1019.79 1019.38 1019.22 1019.16 1019.10 1019.24 1019.11 1019.01 1018.97 1019.19 1019.29 1019.32 1019.33 1018.68 1017.42 1016.30 1014.09 1013.58 1013.59 1013.67 1013.48 1013.40
1022.67 1022.57 1022.65 1022.57 1022.20 1021.96 1021.63 1021.51 1021.50 1020.81 1020.64 1021.26 1022.20 1022.76 1023.12 1022.94 1022.84 1022.24 1021.68 1021.39 1020.92 1020.71 1020.65 1019.95 1019.11 1018.67 1018.72 1018.90 1019.17 1019.19 1019.14 1019.00 1018.75 1018.66 1018.95 1019.13 1019.40 1019.55 1019.15 1018.08 1015.28 1013.89 1013.56 1013.63 1013.69 1013.12 1012.89
1022.36 1022.35 1022.48 1022.49 1022.25 1021.95 1021.81 1021.37 1021.69 1021.28 1020.87 1021.36 1021.97 1022.25 1022.70 1023.29 1022.51 1022.04 1022.01 1021.75 1021.70 1021.22 1020.65 1019.96 1019.52 1019.37 1018.96 1018.96 1019.56 1020.40 1020.26 1019.76 1019.30 1018.60 1018.49 1018.86 1018.99 1019.45 1019.13 1018.02 1015.61 1013.62 1013.25 1013.14 1013.37 1013.32 1012.87
1021.93 1021.97 1022.18 1022.32 1022.17 1022.00 1021.68 1021.59 1021.23 1021.48 1021.19 1021.30 1021.90 1022.09 1022.46 1023.00 1022.33 1022.12 1021.89 1021.67 1021.33 1021.47 1021.40 1020.75 1020.26 1019.86 1019.85 1019.97 1019.85 1020.20 1020.07 1019.86 1019.83 1019.39 1018.98 1019.12 1019.37 1019.34 1018.85 1017.99 1015.51 1014.13 1013.72 1013.45 1013.59 1013.42 1012.75
1021.49 1021.52 1021.65 1022.02 1021.94 1021.87 1021.71 1021.35 1021.37 1021.05 1021.30 1021.61 1021.90 1021.62 1021.67 1022.43 1021.90 1021.63 1021.33 1021.19 1021.40 1021.30 1021.29 1020.96 1020.97 1020.86 1020.70 1021.07 1021.22 1020.75 1020.50 1019.97 1019.94 1019.18 1018.60 1018.70 1019.02 1019.10 1018.65 1017.68 1015.79 1014.11 1014.14 1014.02 1013.19 1012.90 1012.85
1020.73 1020.85 1021.03 1021.46 1021.71 1021.65 1021.64 1021.38 1021.19 1021.11 1021.04 1021.33 1022.08 1021.99 1021.78 1021.78 1021.18 1020.78 1020.59 1020.24 1020.17 1020.28 1020.60 1021.28 1021.69 1021.47 1021.27 1021.36 1021.56 1021.27 1020.96 1020.57 1020.01 1019.61 1018.55 1018.47 1017.54 1017.48 1017.14 1015.08 1013.95 1013.85 1013.49 1013.04 1013.07 1013.13 1012.90
Wind_Speed
23 22 23 23 24 24 24 25 27 27 29 31 33 28 19 12 8 8 4 3 2 3 4 4 0 9 6 6 4 8 10 11 10 6 5 5 4 3 5 4 3 2 0 2 5 9 8
23 23 23 23 24 23 24 23 23 24 23 23 21 19 16 14 11 8 7 5 4 7 5 4 2 5 2 5 2 10 14 7 7 7 4 3 4 4 6 3 2 3 2 6 8 9 6
22 23 24 24 24 24 24 22 21 21 21 22 21 19 16 13 12 10 10 9 8 7 6 4 5 8 5 7 4 10 11 5 3 5 5 3 5 5 3 3 0 1 4 6 2 2 3
22 22 24 27 26 26 24 21 17 18 18 18 19 18 17 15 13 12 12 12 13 10 6 5 7 5 5 3 5 10 5 7 7 7 7 4 7 6 4 3 4 3 2 5 1 2 3
21 23 24 25 27 27 25 22 18 13 14 16 16 16 15 15 13 12 13 9 16 17 13 14 7 8 3 2 9 5 3 6 5 6 7 5 5 3 3 3 3 5 1 2 8 2 2
21 22 24 26 27 27 25 23 20 12 12 14 15 15 16 16 15 14 7 6 13 11 7 6 7 11 3 4 5 7 1 3 5 5 5 6 5 3 3 3 2 0 2 3 6 3 1
21 22 24 25 27 26 28 24 20 15 11 14 15 15 14 20 21 14 5 5 6 7 10 8 5 14 6 5 4 6 3 5 3 6 3 3 4 3 4 4 4 4 1 6 9 12 9
20 21 23 25 26 25 27 25 22 17 12 13 14 14 11 14 19 16 6 6 2 2 11 14 12 11 8 0 6 4 0 3 2 3 3 4 1 3 3 3 2 2 6 7 11 4 3
20 20 22 24 26 25 22 25 26 18 13 14 15 15 9 10 10 9 10 6 2 3 6 8 7 6 4 8 5 3 1 2 3 3 2 2 1 5 4 3 3 4 5 5 7 8 13
20 20 21 22 24 25 24 21 21 21 16 15 15 16 10 3 8 4 5 7 3 3 7 10 9 5 3 1 4 0 1 2 1 2 4 3 3 3 2 2 6 6 9 9 9 6 5
19 20 21 20 21 23 24 23 21 18 18 15 15 12 16 9 5 4 4 6 5 1 8 7 4 4 7 3 5 1 3 4 3 4 3 5 1 4 6 7 9 6 1 6 9 11 8
19 19 20 20 20 21 22 22 21 19 14 15 14 10 7 5 4 0 4 3 4 9 4 2 4 3 2 2 3 2 2 3 1 3 3 7 3 4 6 2 7 3 6 8 9 4 5
20 19 19 21 20 20 20 21 20 19 17 11 9 11 7 2 2 2 3 4 7 8 1 3 3 3 3 3 2 2 2 1 1 3 5 5 2 2 3 3 2 5 4 4 3 3 6
19 19 19 20 21 21 21 20 20 18 18 13 6 5 5 3 3 3 3 7 10 4 5 1 1 1 3 4 2 1 2 2 4 3 2 5 7 5 4 5 1 3 3 2 4 3 5
19 19 19 20 21 22 22 21 20 19 17 13 4 2 3 2 2 2 5 7 3 1 0 4 1 2 0 2 2 1 1 2 1 6 2 2 5 2 4 3 3 1 3 3 4 3 4
19 19 19 20 21 22 23 22 21 21 21 5 3 2 2 2 3 2 6 8 3 2 2 1 1 0 2 1 1 1 2 2 1 5 4 2 5 2 0 3 4 6 5 1 1 3 3
14 18 19 19 20 21 23 24 23 23 22 6 4 4 2 3 3 7 6 3 2 2 1 1 1 1 3 3 2 2 1 3 3 4 8 3 2 4 2 5 4 1 2 2 1 2 2
12 15 18 19 19 20 22 23 23 22 19 8 2 5 1 2 7 2 3 4 4 3 1 2 1 1 3 4 1 1 3 6 7 7 6 6 2 5 5 2 1 3 2 4 2 1 1
11 13 17 18 19 20 21 22 21 16 13 2 4 2 2 2 5 1 3 3 2 6 4 4 3 2 2 0 2 4 2 1 6 6 5 5 2 4 4 2 1 2 3 4 2 0 2
14 11 13 18 19 19 22 21 17 12 10 5 4 3 6 6 3 6 5 2 4 4 1 3 4 3 3 4 1 3 4 2 2 2 5 4 2 5 4 4 0 5 4 2 4 3 3
13 10 12 16 18 21 21 19 14 12 6 5 4 1 4 0 4 3 2 4 3 6 4 5 3 4 2 4 5 5 3 6 1 5 2 2 4 2 6 7 2 4 3 2 5 4 3
11 10 11 14 17 19 20 15 14 14 3 6 4 3 2 2 2 1 3 1 3 1 1 4 3 4 4 3 3 4 2 0 0 6 3 4 3 2 6 3 5 5 6 6 3 3 3
10 10 9 12 15 16 17 13 14 16 6 4 1 1 4 3 1 3 3 6 6 5 4 3 3 1 2 3 6 9 7 4 3 2 3 2 2 3 5 4 7 6 9 6 4 4 6
10 9 7 10 12 15 13 12 12 15 9 3 1 2 4 1 1 1 2 3 5 4 4 3 5 2 2 5 2 1 3 6 6 7 5 2 1 2 5 4 3 4 1 0 3 6 7
12 7 5 7 9 12 11 11 11 12 8 4 2 3 2 1 1 2 1 2 4 3 3 4 5 5 1 3 4 4 4 2 2 3 5 4 3 0 1 2 8 1 3 4 4 6 6
11 7 4 5 6 7 7 9 11 9 6 4 2 2 3 3 4 2 2 2 1 2 4 4 3 5 2 3 4 1 3 2 5 7 5 5 3 3 1 1 5 4 2 3 3 5 4
10 8 7 5 5 5 4 7 8 10 6 3 2 2 4 1 3 4 4 4 4 2 2 4 5 3 3 1 3 5 5 4 4 3 2 3 3 2 2 4 9 4 2 1 4 6 1
9 8 9 8 7 6 6 3 7 8 6 2 1 2 4 3 4 7 6 5 1 1 3 3 3 1 3 1 1 2 3 4 2 4 4 4 4 3 1 2 7 4 2 5 6 2 3
9 9 10 10 9 8 6 5 3 5 4 3 2 2 1 3 5 4 5 4 5 6 5 0 1 1 3 3 1 1 3 1 3 4 0 4 7 5 10 9 6 6 6 3 3 5 4
Wind_Direction
6 5 2 356 355 358 359 5 6 18 26 43 44 47 59 72 73 65 63 35 327 320 308 315 340 122 119 82 46 327 56 153 109 97 105 111 88 119 117 112 104 109 209 302 261 271 255
4 7 358 355 357 358 356 5 11 16 27 30 55 68 38 38 34 26 359 354 316 309 294 279 285 143 123 110 338 26 52 15 96 87 96 87 127 128 107 104 109 176 244 263 262 263 249
9 3 359 354 358 357 357 1 10 16 25 25 35 35 40 33 24 3 343 329 309 275 275 320 351 130 72 118 73 71 62 311 54 106 93 61 116 85 119 103 146 53 330 313 281 283 268
11 3 359 356 356 353 356 358 6 17 24 31 30 33 29 21 14 360 347 344 304 245 178 138 94 103 80 114 123 89 90 47 54 63 90 95 96 95 80 137 35 40 52 351 238 296 319
9 4 2 356 355 355 359 359 4 21 28 34 30 33 31 15 8 360 359 7 70 107 130 114 55 68 40 67 115 96 97 108 78 54 53 77 66 79 52 77 37 20 328 329 312 237 322
9 7 3 356 359 1 3 1 357 18 31 43 37 33 35 30 19 5 11 24 66 73 90 103 89 103 256 84 91 128 334 104 96 83 41 46 52 70 47 72 210 353 8 294 264 279 262
7 9 4 0 1 8 10 3 358 6 21 38 40 35 59 44 32 26 26 19 30 37 27 51 58 87 62 103 9 83 208 80 70 49 83 22 73 205 217 169 112 105 251 271 255 268 293
6 10 8 1 4 13 16 11 3 0 17 27 37 38 60 42 42 39 63 63 25 349 63 34 67 80 116 121 109 53 45 89 79 92 88 38 216 227 166 128 146 224 276 277 289 256 260
5 8 9 6 7 11 13 14 11 13 23 21 28 32 33 64 41 39 65 58 310 320 78 40 26 31 10 36 84 149 76 61 91 104 175 136 157 77 128 135 187 227 221 233 248 319 267
6 3 7 9 7 9 12 9 17 13 13 11 24 23 22 65 47 336 41 354 326 313 80 3 7 31 19 166 94 137 290 109 80 162 154 223 244 191 181 244 175 269 207 236 265 293 298
8 0 3 7 9 8 11 12 13 14 3 4 5 33 40 53 135 38 317 329 341 15 67 332 2 310 329 30 139 101 2 10 17 339 111 266 197 191 228 220 176 249 30 256 268 266 297
7 2 0 2 8 9 8 11 11 11 9 357 1 4 12 7 44 346 316 18 22 44 68 18 357 39 58 283 76 79 54 37 252 315 222 229 205 216 216 225 187 273 306 275 250 241 242
2 1 358 358 1 7 8 7 11 5 3 353 346 355 14 335 142 339 334 35 41 70 254 33 60 249 321 66 88 148 186 114 92 13 359 307 217 227 173 288 162 215 286 313 349 213 244
0 0 357 355 359 1 3 6 4 2 359 355 321 15 325 310 338 17 47 47 62 21 58 180 120 351 31 342 46 71 87 299 201 127 289 3 335 195 166 213 332 180 211 251 292 288 300
359 357 355 355 354 355 358 1 1 357 350 347 55 2 330 276 271 37 69 60 94 86 143 133 176 14 276 243 222 269 201 323 268 173 218 303 277 114 195 154 176 93 229 239 263 226 274
355 354 354 354 354 350 353 357 0 356 350 40 85 37 293 9 144 69 64 91 82 3 347 123 204 194 66 51 310 3 318 209 286 172 184 322 297 220 57 110 256 260 334 272 234 290 285
355 352 352 353 351 351 351 353 358 1 360 104 62 53 271 128 105 49 61 62 318 276 226 208 356 167 140 166 224 197 260 251 223 183 181 313 263 292 100 206 166 232 229 250 262 252 305
356 351 348 352 350 349 350 350 355 1 360 55 61 48 293 197 56 24 43 331 327 313 346 311 246 262 184 173 192 232 219 214 176 153 185 213 235 270 240 228 327 349 134 194 223 182 224
338 352 344 349 348 346 348 342 344 1 30 79 65 231 310 92 106 45 324 349 299 357 5 4 324 352 33 185 300 216 246 291 155 163 206 180 238 311 346 39 143 153 225 254 148 200 234
339 350 348 345 349 347 344 341 346 10 29 87 76 45 344 35 6 123 134 7 337 333 293 328 355 42 9 37 61 315 336 331 342 232 220 175 205 204 201 218 284 296 334 262 188 167 166
340 339 348 348 351 351 348 353 1 4 16 93 44 256 171 50 341 102 112 130 21 3 352 16 34 48 274 19 351 1 333 322 269 356 105 162 251 189 254 240 234 254 271 297 213 245 206
335 331 346 351 354 353 354 9 8 354 51 76 112 123 6 97 5 332 346 209 136 275 345 342 60 323 0 106 172 272 8 189 328 322 42 347 282 347 287 187 223 261 230 216 221 175 124
325 330 341 352 354 358 360 7 14 1 24 88 343 96 106 302 26 90 229 193 207 176 195 201 225 247 315 241 213 223 224 267 252 324 309 38 29 20 269 347 315 288 216 197 196 216 157
320 328 335 350 355 357 7 10 18 23 41 98 150 85 86 234 123 258 193 203 201 240 169 217 168 186 272 336 263 215 218 232 226 239 198 276 25 141 259 348 357 250 17 1 239 250 223
317 314 315 340 352 360 14 25 17 31 45 89 117 98 86 161 212 276 338 283 320 317 273 258 221 205 72 27 1 350 335 319 204 188 202 203 141 238 168 220 279 129 190 185 184 290 210
308 305 265 313 339 360 5 28 5 19 55 92 95 124 108 115 249 153 161 168 256 276 312 251 322 332 27 106 89 343 272 272 300 319 159 132 113 136 188 166 247 225 193 196 153 286 303
293 297 233 268 301 325 341 7 19 359 32 103 121 121 101 112 244 160 190 194 153 160 232 300 334 343 359 347 154 176 234 190 244 256 294 333 359 215 220 260 290 265 249 266 98 238 278
270 280 222 239 259 277 293 318 357 21 14 69 248 171 129 163 257 194 198 161 141 164 169 264 27 338 17 27 277 229 193 234 298 239 194 188 161 222 124 277 299 174 65 174 223 277 233
248 252 225 224 240 253 278 287 323 17 33 88 324 311 76 155 228 201 228 236 189 183 145 21 233 234 211 89 240 158 260 252 189 264 55 258 196 191 183 214 207 211 240 244 192 225 247